Regional Weather Roundup
Issued by NWS

Home | Current Version | Previous Version | Text Only | Print | Product List | Glossary On
Versions: 1 2 3 4 5 6 7 8 9 10 11 12 13 14 15 16 17 18 19 20 21 22 23 24 25 26 27 28 29 30 31 32 33 34 35 36 37 38 39 40 41 42 43 44 45 46 47 48 49 50
000
ASUS43 KMPX 280510
RWRMN
WEATHER ROUNDUP FOR MINNESOTA
NATIONAL WEATHER SERVICE TWIN CITIES/CHANHASSEN MN
1200 AM CDT SUN AUG 28 2016


NOTE: "FAIR" INDICATES FEW OR NO CLOUDS BELOW 12,000 FEET WITH NO
SIGNIFICANT WEATHER AND/OR OBSTRUCTIONS TO VISIBILITY. N/A MEANS
CURRENT SKY AND/OR WEATHER CONDITIONS ARE NOT AVAILABLE.

MNZ060>063-068>070-280600-
   Twin Cities Metro

CITY           SKY/WX    TMP DP  RH WIND       PRES   REMARKS
TWIN CITIES    CLEAR     63  61  93 SE3       30.08R
ST PAUL        PTCLDY    61  60  97 SE3       30.08S FOG
CRYSTAL        FOG       58  56  93 CALM      30.06S VSB 1/4
BLAINE         FOG       61  61 100 CALM      30.08R VSB 1/4
LAKEVILLE      PTCLDY    59  59 100 CALM      30.08S FOG
EDEN PRAIRIE   CLEAR     62  60  93 CALM      30.06S FOG
LAKEVILLE      PTCLDY    59  59 100 CALM      30.08S FOG
SOUTH ST PAUL  MOCLDY    60  60  98 CALM      30.08R
LAKE ELMO      FOG       57  57 100 CALM      30.09S VSB 1/4
$$
MNZ001>005-007-008-013>017-022>024-027-028-280600-
   Northwest Minnesota

CITY           SKY/WX    TMP DP  RH WIND       PRES   REMARKS
BEMIDJI        CLEAR     55  55  97 S5        30.02S
HALLOCK        CLEAR     55  54  94 SE6       29.96S
ROSEAU         CLEAR     57  52  82 SE5       29.99S
WARROAD        CLEAR     55  52  88 SE3       30.00F
THIEF RVR FALL CLEAR     54  53  97 SE5       30.00R
CROOKSTON      CLEAR     57  55  94 S5        29.99R
FOSSTON        CLEAR     55  54  94 S5        30.01S
DETROIT LAKES  CLEAR     61  59  94 S7        30.03R
MOORHEAD       CLEAR     61  57  88 SE6       30.00S
PARK RAPIDS    CLEAR     60  56  86 SE5       30.04R
MAHNOMEN       FAIR      57  56  95 S5        30.01R
$$
MNZ006-009>011-018-025>026-280600-
   North Central Minnesota

CITY           SKY/WX    TMP DP  RH WIND       PRES   REMARKS
BAUDETTE       CLEAR     53  52  96 SE6       30.01R
FLAG ISLAND    MOCLDY    63  59  88 CALM      29.99S
INTL FALLS     MOCLDY    53  52  96 CALM      30.03S
WASKISH        CLEAR     54  52  94 SE6       30.02S
BIG FORK       MOCLDY    54  52  94 S3        30.06R
LONGVILLE      CLEAR     57  55  94 SE5       30.05S
GRAND RAPIDS   CLOUDY    55  54  96 SE3       30.09R
CRANE LAKE     PTCLDY    46  46 100 SE1       30.06S
ORR            PTCLDY    52  48  87 CALM      30.04S
COOK           MOCLDY    48  48 100 CALM      30.07R FOG
WALKER         FAIR      59  57  92 SE3       30.04R
$$
MNZ012-019>021-037-280600-
   Northeast Minnesota

CITY           SKY/WX    TMP DP  RH WIND       PRES   REMARKS
DULUTH         MOCLDY    58  56  93 CALM      30.07R
ELY            FOG       52  52 100 CALM      30.06S VSB 3/4
HIBBING        FOG       46  46 100 CALM      30.07R VSB 1/4
EVELETH        PTCLDY    50  49  97 CALM      30.08R FOG
DULUTH HARBOR  CLOUDY    63  57  82 CALM      30.07S
TWO HARBORS    MOCLDY    63  57  82 CALM      30.05S
SILVER BAY     MOCLDY    59  57  94 CALM      30.05S
GRAND MARAIS     N/A     60  58  92 CALM      30.05F
G MARAIS ARPRT CLOUDY    54  52  94 CALM      30.08F
$$
MNZ029>031-032-039>041-046>048-054>057-064-280600-
   West Central Minnesota

CITY           SKY/WX    TMP DP  RH WIND       PRES   REMARKS
FERGUS FALLS   CLEAR     63  61  94 SE7       30.03S
WHEATON        CLEAR     64  61  88 SE12G18   30.02S
MORRIS         CLEAR     59  57  94 CALM      30.02S
ALEXANDRIA     CLEAR     59  57  93 SE7       30.06R
ELBOW LAKE     FAIR      59  58  97 SE8       30.03R
WADENA         CLEAR     57  57 100 S5        30.04R
GLENWOOD       CLEAR     55  55 100 SE6       30.06R FOG
APPLETON       CLEAR     63  57  82 SE8       30.03S
BENSON         CLEAR     61  57  88 S7        30.04S
ORTONVILLE     CLEAR     61  57  88 CALM      30.02S
MADISON        CLEAR     63  61  94 SE7       30.03S
WILLMAR        FAIR      63  61  94 SE5       30.07S
$$
MNZ033>034-036-042>043-049>051-058-059-280600-
   Central Minnesota

CITY           SKY/WX    TMP DP  RH WIND       PRES   REMARKS
ST CLOUD       FOG       60  60 100 S8        30.06F VSB 1/4
SAUK CENTRE    FOG       59  59  99 SE8       30.06F VSB 1/4
PAYNESVILLE    FOG       62  62 100 SE3       30.07R VSB 3/4
AITKIN         CLOUDY    63  57  82 CALM      30.06R
PINE RIVER     CLOUDY    59  59 100 SE5       30.09S
BRAINERD       CLOUDY    60  59  96 S3        30.07R
STAPLES        PTCLDY    57  57 100 SE3       30.05R
LONG PRAIRIE   FOG       59  59 100 E5        30.06S VSB 1/4
LITTLE FALLS   FOG       59  57  94 SE3       30.07R VSB 1/4
LITCHFIELD     FOG       63  63 100 SE3       30.07S VSB<1/4
BUFFALO        FOG       59  57  94 CALM      30.08R VSB 1/4
MAPLE LAKE     FOG       62  61  98 CALM      30.08R VSB 1/4
HUTCHINSON     CLEAR     61  61 100 SE3       30.08R
$$
MNZ037-044-045-052-053-280600-
   East Central Minnesota

CITY           SKY/WX    TMP DP  RH WIND       PRES   REMARKS
PRINCETON      FOG       63  61  94 CALM      30.07S VSB<1/4
MORA           CLOUDY    59  59 100 CALM      30.09R FOG
CAMBRIDGE      FOG       63  61  94 CALM      30.06S VSB 1/4
RUSH CITY      LGT RAIN  62  60  96 CALM      30.08R
MOOSE LAKE     CLOUDY    61  59  94 CALM      30.06S
HINCKLEY       CLOUDY    61  61 100 CALM      30.08R
CLOQUET        CLOUDY    59  55  88 CALM      30.08R
MCGREGOR       CLOUDY    61  59  94 CALM      30.08R
$$
MNZ071>073-080-081-089-090-097-098-280600-
   Southwest Minnesota

CITY           SKY/WX    TMP DP  RH WIND       PRES   REMARKS
MONTEVIDEO     CLEAR     59  59 100 S6        30.06S
GRANITE FALLS  CLEAR     63  61  92 SE6       30.06S
CANBY          CLEAR     64  61  92 S7        30.05S
MARSHALL       CLEAR     62  60  93 SE7       30.06R
REDWOOD FALLS  CLEAR     61  59  93 SE5       30.05S
OLIVIA         CLEAR     63  59  88 SE3       30.06R
PIPESTONE      PTCLDY    64  63  94 SE6       30.06S
WINDOM         CLEAR     63  59  88 CALM      30.08F
WORTHINGTON    CLEAR     64  62  93 S5        30.09R
JACKSON          N/A     61  59  94 E5        30.10R
TRACY          PTCLDY    65  63  93 S6        30.06F
$$
MNZ065>067-074>077-082>085-091>093-280600-
   South Central Minnesota

CITY           SKY/WX    TMP DP  RH WIND       PRES   REMARKS
MANKATO        CLEAR     63  59  88 SE7       30.08S
NEW ULM          N/A     61  61 100 SE3       30.07S
ST JAMES       CLEAR     59  57  94 SE3       30.09S
FAIRMONT       PTCLDY    59  58  96 CALM      30.09R
GLENCOE        CLEAR     61  61 100 SE3       30.07S
FARIBAULT      FOG       57  57 100 CALM      30.09S VSB 1/2
OWATONNA       PTCLDY    64  63  94 SE5       30.09S
WASECA         CLEAR     59  57  94 SE5       30.10S FOG
ALBERT LEA     MOCLDY    63  63 100 CALM      30.09F FOG
$$
MNZ078>079-086>088-094>096-280600-
   Southeast Minnesota

CITY           SKY/WX    TMP DP  RH WIND       PRES   REMARKS
ROCHESTER      FOG       64  64 100 SE5       30.11R VSB 3/4
RED WING       FOG       61  61 100 CALM      30.08R VSB 1/4
STANTON          N/A     57  57 100 CALM      30.08R VSB 1/4
DODGE CENTER   FOG       63  61  94 CALM      30.11R VSB 1/2
WINONA         MOCLDY    66  64  94 CALM      30.09S
AUSTIN         PTCLDY    64  63  94 CALM      30.09S
PRESTON        CLEAR     64  62  94 S5        30.11S
$$
ABBREVIATIONS USED IN REMARKS
   TC - TEMPERATURES IN CELSIUS
  WCI - WIND CHILL INDEX
   HX - HEAT INDEX
  VSB - VISIBILITY
$$




USA.gov is the U.S. government's official web portal to all federal, state and local government web resources and services.